WXM80 ListenWXM80 Stop

You find our weather info also at:

UK Metoffice

WeatherCloud

Weather Underground

Northeastern Weather Network

AWEKAS

Citizen Weather Observer Program (CWOP)

HAMweather, WeatherForYou, PWS Weather


Weather Underground History page Text

Daily Summary for January 19, 2017 Units:  Metric    English   Both
« Previous Day
Next Day »
Daily Weekly Monthly Yearly Custom
  High: Low: Average:
Temperature: 9.8 °C 0.9 °C 5.4 °C
Dew Point: 5.1 °C 0.1 °C 3 °C
Humidity: 97 % 70 % 85 %
Wind Speed: 13.2 km/h 0 km/h 2.1 km/h
Wind Gust: 20.4 km/h - -
Wind:- - WSW
Pressure: 1016.5 hPa 1013.8 hPa -
Precipitation: 0 mm    
Historical Graphs
 
 
Tabular Data for January 19, 2017
Time Temperature Dew Point Pressure Wind Wind Speed Wind Gust Humidity Rainfall Rate (Hourly)
00:04 3.8 °C 2.9 °C 1014.8 hPa Calm   3.2 km/h 94 % 0 mm
00:09 3.8 °C 2.9 °C 1014.8 hPa North 0.2 km/h 1.9 km/h 94 % 0 mm
00:14 3.8 °C 2.9 °C 1014.8 hPa North 1.6 km/h 6.4 km/h 94 % 0 mm
00:19 3.8 °C 2.9 °C 1015.1 hPa Calm   3.2 km/h 94 % 0 mm
00:24 3.8 °C 2.9 °C 1015.1 hPa NNW 1.9 km/h 3.7 km/h 94 % 0 mm
00:29 3.7 °C 2.8 °C 1015.1 hPa Calm   4.8 km/h 94 % 0 mm
00:34 3.7 °C 2.8 °C 1015.1 hPa North 0.5 km/h 3.7 km/h 94 % 0 mm
00:39 3.7 °C 2.8 °C 1015.1 hPa North 1.6 km/h 3.2 km/h 94 % 0 mm
00:44 3.7 °C 2.8 °C 1015.1 hPa NNW 2.4 km/h 5.6 km/h 94 % 0 mm
00:49 3.7 °C 2.8 °C 1015.5 hPa Calm   4.8 km/h 94 % 0 mm
00:54 3.7 °C 2.8 °C 1015.1 hPa Calm   4.8 km/h 94 % 0 mm
00:59 3.7 °C 2.8 °C 1015.5 hPa NNW 0.3 km/h 1.9 km/h 94 % 0 mm
01:04 3.7 °C 2.8 °C 1015.5 hPa Calm   4.8 km/h 94 % 0 mm
01:09 3.7 °C 2.8 °C 1015.5 hPa NNW 1.6 km/h 4.8 km/h 94 % 0 mm
01:14 3.6 °C 2.7 °C 1015.5 hPa NNW 1.9 km/h 5.6 km/h 94 % 0 mm
01:19 3.6 °C 2.7 °C 1015.5 hPa Calm   4.8 km/h 94 % 0 mm
01:24 3.6 °C 2.7 °C 1015.5 hPa Calm   4.8 km/h 94 % 0 mm
01:29 3.6 °C 2.7 °C 1015.5 hPa North 1.6 km/h 4.8 km/h 94 % 0 mm
01:34 3.6 °C 2.7 °C 1015.8 hPa Calm   4.8 km/h 94 % 0 mm
01:39 3.6 °C 2.7 °C 1015.8 hPa Calm     94 % 0 mm
01:44 3.5 °C 2.6 °C 1015.8 hPa Calm   3.2 km/h 94 % 0 mm
01:49 3.5 °C 2.6 °C 1015.8 hPa Calm   3.2 km/h 94 % 0 mm
01:54 3.5 °C 2.6 °C 1015.8 hPa North 1.6 km/h 3.2 km/h 94 % 0 mm
02:00 3.4 °C 2.6 °C 1015.8 hPa Calm   3.7 km/h 94 % 0 mm
02:05 3.4 °C 2.5 °C 1015.8 hPa Calm     94 % 0 mm
02:10 3.3 °C 2.4 °C 1015.8 hPa Calm     94 % 0 mm
02:15 3.3 °C 2.4 °C 1015.8 hPa Calm     94 % 0 mm
02:21 3.3 °C 2.4 °C 1015.8 hPa Calm     94 % 0 mm
02:26 3.2 °C 2.3 °C 1015.8 hPa Calm     94 % 0 mm
02:31 3.2 °C 2.2 °C 1015.8 hPa Calm     93 % 0 mm
02:36 3.1 °C 2.1 °C 1015.8 hPa Calm     93 % 0 mm
02:41 3.1 °C 2.1 °C 1015.8 hPa Calm     93 % 0 mm
02:46 3.1 °C 2.2 °C 1015.8 hPa Calm     94 % 0 mm
02:51 3.1 °C 2.2 °C 1015.5 hPa Calm     94 % 0 mm
02:56 3 °C 2.1 °C 1015.5 hPa Calm     94 % 0 mm
03:01 3 °C 2.1 °C 1015.5 hPa Calm     94 % 0 mm
03:06 3 °C 2.1 °C 1015.8 hPa Calm     94 % 0 mm
03:11 3 °C 2.1 °C 1015.5 hPa Calm     94 % 0 mm
03:16 3 °C 2.1 °C 1015.5 hPa Calm     94 % 0 mm
03:21 3 °C 2.1 °C 1015.5 hPa Calm     94 % 0 mm
03:26 3 °C 2.1 °C 1015.5 hPa Calm     94 % 0 mm
03:31 3 °C 2.1 °C 1015.5 hPa Calm     94 % 0 mm
03:36 3 °C 2.1 °C 1015.5 hPa Calm     94 % 0 mm
03:41 3.1 °C 2.2 °C 1015.5 hPa Calm     94 % 0 mm
03:47 3.1 °C 2.2 °C 1015.8 hPa Calm   1.9 km/h 94 % 0 mm
03:52 3.1 °C 2.3 °C 1015.8 hPa NNW 1.1 km/h 3.7 km/h 95 % 0 mm
03:57 3.1 °C 2.4 °C 1015.8 hPa Calm   3.7 km/h 95 % 0 mm
04:02 3.2 °C 2.4 °C 1015.8 hPa NW 0.3 km/h 1.9 km/h 95 % 0 mm
04:07 3.2 °C 2.4 °C 1015.5 hPa Calm     95 % 0 mm
04:12 3.2 °C 2.4 °C 1015.5 hPa NW 0.5 km/h 1.9 km/h 95 % 0 mm
04:17 3.2 °C 2.4 °C 1015.5 hPa Calm   1.6 km/h 95 % 0 mm
04:22 3.2 °C 2.5 °C 1015.5 hPa Calm     95 % 0 mm
04:27 3.2 °C 2.5 °C 1015.5 hPa Calm     95 % 0 mm
04:32 3.2 °C 2.4 °C 1015.5 hPa NW 0.2 km/h 1.9 km/h 95 % 0 mm
04:37 3.2 °C 2.4 °C 1015.5 hPa Calm     95 % 0 mm
04:42 3.2 °C 2.4 °C 1015.5 hPa Calm     95 % 0 mm
04:47 3.1 °C 2.4 °C 1015.5 hPa Calm   1.9 km/h 95 % 0 mm
04:52 3.1 °C 2.3 °C 1015.5 hPa Calm     95 % 0 mm
04:57 3.1 °C 2.3 °C 1015.5 hPa Calm     95 % 0 mm
05:02 3 °C 2.3 °C 1015.5 hPa Calm     95 % 0 mm
05:08 2.9 °C 2.2 °C 1015.5 hPa Calm     95 % 0 mm
05:13 2.9 °C 2.2 °C 1015.1 hPa Calm     95 % 0 mm
05:18 2.9 °C 2.2 °C 1015.1 hPa Calm     95 % 0 mm
05:23 2.9 °C 2.2 °C 1015.1 hPa Calm     95 % 0 mm
05:28 2.8 °C 2.1 °C 1015.1 hPa Calm     95 % 0 mm
05:33 2.8 °C 2.1 °C 1015.5 hPa Calm     95 % 0 mm
05:38 2.8 °C 2.1 °C 1015.5 hPa Calm     95 % 0 mm
05:43 2.7 °C 1.9 °C 1015.5 hPa Calm     95 % 0 mm
05:48 2.6 °C 1.9 °C 1015.5 hPa Calm     95 % 0 mm
05:53 2.6 °C 1.8 °C 1015.5 hPa Calm     95 % 0 mm
05:58 2.4 °C 1.6 °C 1015.5 hPa Calm     94 % 0 mm
06:03 2.3 °C 1.4 °C 1015.5 hPa Calm     94 % 0 mm
06:08 2.2 °C 1.3 °C 1015.8 hPa Calm     94 % 0 mm
06:13 2.2 °C 1.3 °C 1015.5 hPa Calm     94 % 0 mm
06:18 2 °C 1.1 °C 1015.5 hPa Calm     94 % 0 mm
06:23 1.9 °C 1 °C 1015.5 hPa NW 0.2 km/h 1.6 km/h 94 % 0 mm
06:28 1.8 °C 0.9 °C 1015.5 hPa Calm   1.9 km/h 94 % 0 mm
06:33 1.8 °C 0.9 °C 1015.5 hPa Calm     94 % 0 mm
06:39 1.7 °C 0.8 °C 1015.5 hPa Calm   1.6 km/h 94 % 0 mm
06:44 1.6 °C 0.7 °C 1015.5 hPa Calm     94 % 0 mm
06:49 1.6 °C 0.7 °C 1015.5 hPa Calm     94 % 0 mm
06:54 1.5 °C 0.7 °C 1015.5 hPa Calm     94 % 0 mm
06:59 1.4 °C 0.6 °C 1015.5 hPa Calm     94 % 0 mm
07:04 1.4 °C 0.6 °C 1015.8 hPa Calm     94 % 0 mm
07:09 1.3 °C 0.5 °C 1015.8 hPa Calm     94 % 0 mm
07:14 1.2 °C 0.4 °C 1015.8 hPa NW 1.4 km/h 3.7 km/h 94 % 0 mm
07:19 1.2 °C 0.3 °C 1015.8 hPa Calm     94 % 0 mm
07:24 1.1 °C 0.3 °C 1015.8 hPa Calm     94 % 0 mm
07:29 1.1 °C 0.2 °C 1015.8 hPa Calm     94 % 0 mm
07:34 1 °C 0.2 °C 1015.8 hPa Calm     94 % 0 mm
07:39 0.9 °C 0.1 °C 1015.8 hPa Calm     94 % 0 mm
07:44 0.9 °C 0.1 °C 1016.1 hPa Calm     94 % 0 mm
07:49 0.9 °C 0.1 °C 1015.8 hPa Calm     94 % 0 mm
07:55 0.9 °C 0.1 °C 1016.1 hPa Calm   1.9 km/h 94 % 0 mm
08:00 0.9 °C 0.2 °C 1016.1 hPa Calm   1.9 km/h 95 % 0 mm
08:05 0.9 °C 0.1 °C 1016.1 hPa Calm     94 % 0 mm
08:10 1 °C 0.3 °C 1016.1 hPa Calm     95 % 0 mm
08:15 1.1 °C 0.3 °C 1016.1 hPa Calm     95 % 0 mm
08:20 1.2 °C 0.4 °C 1016.1 hPa Calm     95 % 0 mm
08:25 1.3 °C 0.8 °C 1016.1 hPa NW 0.2 km/h   96 % 0 mm
08:30 1.6 °C 1.1 °C 1016.1 hPa Calm     96 % 0 mm
08:35 1.8 °C 1.3 °C 1016.1 hPa Calm     96 % 0 mm
08:40 2.2 °C 1.8 °C 1016.1 hPa NW 0.3 km/h 3.2 km/h 97 % 0 mm
08:45 2.6 °C 2.1 °C 1016.5 hPa Calm     97 % 0 mm
08:50 2.9 °C 2.4 °C 1016.5 hPa NW 1.6 km/h 3.7 km/h 97 % 0 mm
08:55 3.2 °C 2.8 °C 1016.1 hPa WNW 1.6 km/h 3.7 km/h 97 % 0 mm
09:00 3.4 °C 3 °C 1016.5 hPa WNW 1.8 km/h 3.7 km/h 97 % 0 mm
09:05 3.6 °C 3.2 °C 1016.5 hPa WNW 0.2 km/h 1.9 km/h 97 % 0 mm
09:10 3.7 °C 3.3 °C 1016.5 hPa WSW 1.8 km/h 5.6 km/h 97 % 0 mm
09:16 3.9 °C 3.4 °C 1016.5 hPa WSW 4.2 km/h 7.4 km/h 97 % 0 mm
09:21 4.1 °C 3.7 °C 1016.5 hPa WSW 3.5 km/h 8 km/h 97 % 0 mm
09:26 4.3 °C 3.8 °C 1016.5 hPa WSW 3.2 km/h 9.3 km/h 97 % 0 mm
09:31 4.5 °C 4.1 °C 1016.5 hPa WSW 6.8 km/h 9.7 km/h 97 % 0 mm
09:36 4.7 °C 4.3 °C 1016.5 hPa West 6.8 km/h 9.7 km/h 97 % 0 mm
09:41 4.9 °C 4.5 °C 1016.5 hPa WSW 3.2 km/h 6.4 km/h 97 % 0 mm
09:46 5.2 °C 4.6 °C 1016.5 hPa WSW 5.3 km/h 9.3 km/h 96 % 0 mm
09:51 5.3 °C 4.7 °C 1016.5 hPa WSW 2.1 km/h 6.4 km/h 96 % 0 mm
09:56 5.6 °C 4.9 °C 1016.5 hPa West 4.5 km/h 5.6 km/h 95 % 0 mm
10:01 5.9 °C 5 °C 1016.5 hPa WSW 4.8 km/h 9.7 km/h 94 % 0 mm
10:06 6.1 °C 5.1 °C 1016.5 hPa WNW 3.7 km/h 5.6 km/h 93 % 0 mm
10:11 6.3 °C 4.9 °C 1016.5 hPa WSW 4.8 km/h 7.4 km/h 91 % 0 mm
10:16 6.6 °C 4.9 °C 1016.1 hPa WNW 6.1 km/h 8 km/h 89 % 0 mm
10:21 6.7 °C 4.7 °C 1016.1 hPa WNW 4.7 km/h 7.4 km/h 87 % 0 mm
10:26 6.8 °C 4.7 °C 1016.1 hPa West 6.1 km/h 11.1 km/h 86 % 0 mm
10:31 7.1 °C 4.7 °C 1016.1 hPa WNW 2.4 km/h 5.6 km/h 85 % 0 mm
10:36 7.2 °C 4.7 °C 1015.8 hPa NW 4.7 km/h 13 km/h 84 % 0 mm
10:42 7.3 °C 4.8 °C 1015.8 hPa WSW 3.1 km/h 3.2 km/h 84 % 0 mm
10:47 7.4 °C 4.7 °C 1015.8 hPa SW 5.8 km/h 9.7 km/h 83 % 0 mm
10:52 7.5 °C 4.6 °C 1015.8 hPa WNW 5 km/h 9.7 km/h 82 % 0 mm
10:57 7.6 °C 4.5 °C 1015.5 hPa SW 6.6 km/h 7.4 km/h 81 % 0 mm
11:02 7.6 °C 4.3 °C 1015.5 hPa WSW 7.6 km/h 11.3 km/h 80 % 0 mm
11:07 7.6 °C 4.5 °C 1015.5 hPa WSW 3.2 km/h 9.3 km/h 81 % 0 mm
11:12 7.6 °C 4.4 °C 1015.5 hPa NW 3.2 km/h 7.4 km/h 80 % 0 mm
11:17 7.7 °C 4.4 °C 1015.1 hPa SSW 4.3 km/h 9.3 km/h 80 % 0 mm
11:22 7.7 °C 4.4 °C 1015.1 hPa WSW 3.7 km/h 7.4 km/h 80 % 0 mm
11:27 7.7 °C 4.7 °C 1015.1 hPa WNW 2.9 km/h 5.6 km/h 81 % 0 mm
11:32 7.8 °C 4.6 °C 1015.1 hPa WSW 4.7 km/h 9.3 km/h 80 % 0 mm
11:37 7.8 °C 4.6 °C 1014.8 hPa SW 5.8 km/h 7.4 km/h 80 % 0 mm
11:42 7.8 °C 4.6 °C 1014.8 hPa WNW 3.7 km/h 5.6 km/h 80 % 0 mm
11:47 7.8 °C 4.6 °C 1014.8 hPa WNW 2.6 km/h 6.4 km/h 80 % 0 mm
11:52 7.8 °C 4.6 °C 1014.8 hPa WNW 0.2 km/h 5.6 km/h 80 % 0 mm
11:57 7.8 °C 4.6 °C 1014.8 hPa WSW 1.6 km/h 5.6 km/h 80 % 0 mm
12:02 7.9 °C 4.7 °C 1014.8 hPa Calm   1.9 km/h 80 % 0 mm
12:08 7.9 °C 4.5 °C 1014.4 hPa WSW 1.8 km/h 3.7 km/h 79 % 0 mm
12:13 8.1 °C 4.6 °C 1014.4 hPa WNW 5 km/h 5.6 km/h 79 % 0 mm
12:18 8.2 °C 4.7 °C 1014.4 hPa West 2.1 km/h 9.7 km/h 79 % 0 mm
12:23 8.4 °C 4.8 °C 1014.4 hPa NNW 0.5 km/h 5.6 km/h 78 % 0 mm
12:28 8.6 °C 4.6 °C 1014.4 hPa WNW 3.9 km/h 11.1 km/h 76 % 0 mm
12:33 8.8 °C 4.6 °C 1014.4 hPa SW 4.7 km/h 5.6 km/h 75 % 0 mm
12:38 8.9 °C 4.6 °C 1014.8 hPa WNW 7.4 km/h 13 km/h 74 % 0 mm
12:43 9.1 °C 4.5 °C 1014.4 hPa WSW 6.1 km/h 11.1 km/h 73 % 0 mm
12:48 9.3 °C 4.5 °C 1014.8 hPa NW 7.2 km/h 14.8 km/h 72 % 0 mm
12:53 9.4 °C 4.6 °C 1014.4 hPa WSW 5 km/h 7.4 km/h 72 % 0 mm
12:58 9.5 °C 4.5 °C 1014.4 hPa WNW 6.3 km/h 14.8 km/h 71 % 0 mm
13:03 9.7 °C 4.8 °C 1014.4 hPa NW 4.5 km/h 7.4 km/h 72 % 0 mm
13:08 9.7 °C 4.7 °C 1014.4 hPa WNW 4.3 km/h 9.3 km/h 71 % 0 mm
13:13 9.8 °C 4.9 °C 1014.4 hPa NW 2.9 km/h 4.8 km/h 72 % 0 mm
13:18 9.8 °C 4.8 °C 1014.4 hPa WNW 2.7 km/h 6.4 km/h 71 % 0 mm
13:23 9.8 °C 4.6 °C 1014.1 hPa WNW 3.5 km/h 6.4 km/h 70 % 0 mm
13:28 9.7 °C 4.5 °C 1014.1 hPa NW 1.8 km/h 5.6 km/h 70 % 0 mm
13:34 9.7 °C 4.7 °C 1014.1 hPa NW 3.7 km/h 5.6 km/h 71 % 0 mm
13:39 9.6 °C 4.6 °C 1014.1 hPa NNW 3.5 km/h 5.6 km/h 71 % 0 mm
13:44 9.6 °C 4.6 °C 1014.1 hPa NW 1.1 km/h 5.6 km/h 71 % 0 mm
13:49 9.5 °C 4.5 °C 1013.8 hPa WNW 1.6 km/h 6.4 km/h 71 % 0 mm
13:54 9.4 °C 4.4 °C 1013.8 hPa WNW 1.6 km/h 8 km/h 71 % 0 mm
13:59 9.3 °C 4.3 °C 1013.8 hPa WNW 2.9 km/h 5.6 km/h 71 % 0 mm
14:04 9.3 °C 4.6 °C 1013.8 hPa Calm   4.8 km/h 72 % 0 mm
14:09 9.3 °C 4.5 °C 1013.8 hPa WNW 1.6 km/h 4.8 km/h 72 % 0 mm
14:14 9.3 °C 4.5 °C 1013.8 hPa WNW 1.6 km/h 4.8 km/h 72 % 0 mm
14:19 9.3 °C 4.5 °C 1013.8 hPa WNW 1.6 km/h 3.2 km/h 72 % 0 mm
14:24 9.2 °C 4.2 °C 1014.1 hPa WNW 1.1 km/h 5.6 km/h 71 % 0 mm
14:29 9.1 °C 4.1 °C 1014.1 hPa WNW 3.2 km/h 6.4 km/h 71 % 0 mm
14:34 9.1 °C 4.4 °C 1014.1 hPa Calm   3.2 km/h 73 % 0 mm
14:39 9 °C 4.2 °C 1014.1 hPa North 1.6 km/h 6.4 km/h 72 % 0 mm
14:44 8.9 °C 4.2 °C 1014.1 hPa Calm   4.8 km/h 72 % 0 mm
14:49 8.9 °C 4.4 °C 1014.1 hPa Calm   3.2 km/h 73 % 0 mm
14:54 8.9 °C 4.1 °C 1014.1 hPa NNW 1.6 km/h 4.8 km/h 72 % 0 mm
14:59 8.8 °C 4.3 °C 1014.1 hPa NW 0.3 km/h 3.7 km/h 73 % 0 mm
15:04 8.8 °C 4.3 °C 1014.1 hPa NNW 4.3 km/h 5.6 km/h 73 % 0 mm
15:09 8.8 °C 4.2 °C 1013.8 hPa NNW 0.8 km/h 3.7 km/h 73 % 0 mm
15:14 8.7 °C 4.2 °C 1013.8 hPa NW 2.6 km/h 5.6 km/h 73 % 0 mm
15:19 8.7 °C 4.2 °C 1013.8 hPa WNW 2.9 km/h 6.4 km/h 73 % 0 mm
15:24 8.7 °C 4.3 °C 1013.8 hPa WSW 4.5 km/h 7.4 km/h 74 % 0 mm
15:29 8.6 °C 4.2 °C 1013.8 hPa WNW 2.7 km/h 9.7 km/h 74 % 0 mm
15:34 8.4 °C 3.9 °C 1013.8 hPa West 3.5 km/h 8 km/h 73 % 0 mm
15:39 8.3 °C 3.9 °C 1013.8 hPa NW 3.2 km/h 5.6 km/h 74 % 0 mm
15:44 8.2 °C 3.8 °C 1013.8 hPa West 4.2 km/h 9.3 km/h 74 % 0 mm
15:49 8.2 °C 4 °C 1013.8 hPa WSW 2.9 km/h 5.6 km/h 75 % 0 mm
15:55 8.1 °C 3.9 °C 1013.8 hPa WSW 5.3 km/h 13 km/h 75 % 0 mm
16:00 8 °C 3.8 °C 1013.8 hPa West 1.4 km/h 7.4 km/h 75 % 0 mm
16:05 7.9 °C 3.8 °C 1013.8 hPa WSW 2.1 km/h 5.6 km/h 75 % 0 mm
16:10 7.9 °C 3.7 °C 1014.1 hPa West 4.2 km/h 8 km/h 75 % 0 mm
16:15 7.8 °C 3.7 °C 1013.8 hPa West 2.3 km/h 5.6 km/h 75 % 0 mm
16:20 7.8 °C 3.8 °C 1013.8 hPa West 1.1 km/h 5.6 km/h 76 % 0 mm
16:25 7.7 °C 3.6 °C 1013.8 hPa WNW 5.3 km/h 5.6 km/h 75 % 0 mm
16:30 7.7 °C 3.5 °C 1013.8 hPa West 5.3 km/h 5.6 km/h 75 % 0 mm
16:35 7.7 °C 3.5 °C 1013.8 hPa West 1.8 km/h 5.6 km/h 75 % 0 mm
16:40 7.6 °C 3.4 °C 1014.1 hPa WSW 5.5 km/h 6.4 km/h 75 % 0 mm
16:45 7.5 °C 3.6 °C 1014.1 hPa WSW 4.7 km/h 7.4 km/h 76 % 0 mm
16:50 7.5 °C 3.6 °C 1014.1 hPa Calm   3.7 km/h 76 % 0 mm
16:55 7.4 °C 3.5 °C 1014.1 hPa West 1.3 km/h 3.2 km/h 76 % 0 mm
17:00 7.4 °C 3.3 °C 1014.4 hPa West 5.5 km/h 11.1 km/h 75 % 0 mm
17:05 7.3 °C 3.2 °C 1014.4 hPa WSW 4 km/h 9.3 km/h 75 % 0 mm
17:10 7.3 °C 3.2 °C 1014.4 hPa WNW 3.2 km/h 5.6 km/h 75 % 0 mm
17:15 7.3 °C 3.2 °C 1014.4 hPa West 4.7 km/h 7.4 km/h 75 % 0 mm
17:20 7.3 °C 3.1 °C 1014.4 hPa WSW 5.6 km/h 11.1 km/h 75 % 0 mm
17:30 7.3 °C 3.1 °C 1014.4 hPa WSW 4.7 km/h 6.4 km/h 75 % 0 mm
17:35 7.2 °C 3.1 °C 1014.8 hPa WSW 0.8 km/h 5.6 km/h 75 % 0 mm
17:40 7.2 °C 3.2 °C 1014.8 hPa SW 1.8 km/h 5.6 km/h 76 % 0 mm
17:45 7.2 °C 3.2 °C 1014.8 hPa WSW 5 km/h 7.4 km/h 76 % 0 mm
17:50 7.1 °C 3.1 °C 1014.8 hPa WSW 0.6 km/h 3.7 km/h 76 % 0 mm
17:55 7 °C 3.2 °C 1014.8 hPa WSW 0.2 km/h 1.9 km/h 77 % 0 mm
18:01 7 °C 3.1 °C 1014.8 hPa WSW 0.2 km/h 1.9 km/h 76 % 0 mm
18:06 6.9 °C 3 °C 1014.8 hPa West 1.4 km/h 6.4 km/h 76 % 0 mm
18:11 6.9 °C 2.9 °C 1014.8 hPa WNW 2.4 km/h 3.2 km/h 76 % 0 mm
18:16 6.9 °C 2.9 °C 1015.1 hPa Calm   3.7 km/h 76 % 0 mm
18:21 6.8 °C 3.1 °C 1015.1 hPa Calm   1.9 km/h 77 % 0 mm
18:26 6.8 °C 3 °C 1015.1 hPa SSW 2.6 km/h 3.7 km/h 77 % 0 mm
18:31 6.8 °C 3 °C 1015.5 hPa SSW 1.6 km/h 3.7 km/h 77 % 0 mm
18:36 6.7 °C 3.2 °C 1015.5 hPa SSW 1.6 km/h 3.7 km/h 78 % 0 mm
18:41 6.7 °C 3.2 °C 1015.8 hPa SSW 0.6 km/h 3.7 km/h 78 % 0 mm
18:46 6.7 °C 3.1 °C 1015.8 hPa Calm   1.6 km/h 78 % 0 mm
18:51 6.7 °C 3.1 °C 1015.8 hPa West 1 km/h 4.8 km/h 78 % 0 mm
18:56 6.6 °C 3.1 °C 1015.8 hPa West 0.2 km/h 1.9 km/h 78 % 0 mm
19:01 6.6 °C 3 °C 1015.8 hPa Calm   1.9 km/h 78 % 0 mm
19:06 6.6 °C 3 °C 1015.8 hPa West 0.3 km/h 1.9 km/h 78 % 0 mm
19:11 6.6 °C 3 °C 1015.8 hPa WNW 1.4 km/h 1.9 km/h 78 % 0 mm
19:17 6.5 °C 2.9 °C 1015.5 hPa WNW 0.6 km/h 3.7 km/h 78 % 0 mm
19:22 6.5 °C 2.9 °C 1015.5 hPa SSW 1 km/h 1.9 km/h 78 % 0 mm
19:27 6.5 °C 3.1 °C 1015.5 hPa SW 0.6 km/h 1.9 km/h 79 % 0 mm
19:32 6.4 °C 3.1 °C 1015.5 hPa SSW 4.2 km/h 5.6 km/h 79 % 0 mm
19:37 6.4 °C 3 °C 1015.5 hPa SW 0.6 km/h 3.7 km/h 79 % 0 mm
19:42 6.4 °C 3 °C 1015.8 hPa SW 2.9 km/h 3.7 km/h 79 % 0 mm
19:47 6.3 °C 3.1 °C 1015.8 hPa SW 0.2 km/h 3.7 km/h 80 % 0 mm
19:52 6.3 °C 3.1 °C 1016.1 hPa WSW 3.4 km/h 7.4 km/h 80 % 0 mm
19:57 6.2 °C 3 °C 1015.8 hPa WSW 3.7 km/h 5.6 km/h 80 % 0 mm
20:02 6.2 °C 2.9 °C 1015.8 hPa WSW 1.9 km/h 3.7 km/h 80 % 0 mm
20:07 6.2 °C 2.9 °C 1015.8 hPa WSW 1.8 km/h 3.7 km/h 80 % 0 mm
20:12 6.1 °C 2.9 °C 1016.1 hPa SW 5 km/h 7.4 km/h 80 % 0 mm
20:17 6.1 °C 2.9 °C 1016.1 hPa WSW 4.5 km/h 7.4 km/h 80 % 0 mm
20:22 6.1 °C 2.9 °C 1015.8 hPa WSW 1.4 km/h 3.2 km/h 80 % 0 mm
20:27 6.1 °C 2.9 °C 1015.8 hPa West 3.4 km/h 5.6 km/h 80 % 0 mm
20:32 6.1 °C 2.9 °C 1016.1 hPa West 1.6 km/h 3.7 km/h 80 % 0 mm
20:37 6.1 °C 2.9 °C 1016.1 hPa WSW 1.6 km/h 3.7 km/h 80 % 0 mm
20:43 6.1 °C 2.9 °C 1015.8 hPa WNW 2.4 km/h 5.6 km/h 80 % 0 mm
20:48 6.1 °C 2.9 °C 1015.8 hPa Calm     80 % 0 mm
20:53 6 °C 2.8 °C 1015.8 hPa Calm     80 % 0 mm
20:58 6 °C 3 °C 1015.8 hPa Calm     81 % 0 mm
21:03 6 °C 3 °C 1015.8 hPa WNW 1.1 km/h 3.7 km/h 81 % 0 mm
21:08 5.9 °C 2.9 °C 1015.8 hPa Calm     81 % 0 mm
21:13 5.9 °C 2.9 °C 1015.8 hPa Calm     81 % 0 mm
21:18 5.9 °C 2.9 °C 1015.8 hPa Calm     81 % 0 mm
21:23 5.9 °C 3.1 °C 1015.8 hPa Calm     82 % 0 mm
21:28 5.8 °C 3 °C 1015.8 hPa Calm     82 % 0 mm
21:33 5.8 °C 3 °C 1015.8 hPa Calm     82 % 0 mm
21:38 5.8 °C 2.9 °C 1015.8 hPa Calm     82 % 0 mm
21:43 5.7 °C 2.9 °C 1015.8 hPa Calm     82 % 0 mm
21:48 5.7 °C 2.9 °C 1015.5 hPa Calm     82 % 0 mm
21:53 5.7 °C 2.8 °C 1015.5 hPa WNW 0.3 km/h 1.9 km/h 82 % 0 mm
21:59 5.7 °C 3 °C 1015.5 hPa NW 0.8 km/h 3.2 km/h 83 % 0 mm
22:04 5.6 °C 2.9 °C 1015.5 hPa NW 2.4 km/h 3.7 km/h 83 % 0 mm
22:09 5.6 °C 2.9 °C 1015.5 hPa North 5.1 km/h 7.4 km/h 83 % 0 mm
22:14 5.6 °C 2.9 °C 1015.5 hPa NNE 4 km/h 9.3 km/h 83 % 0 mm
22:19 5.5 °C 2.8 °C 1015.5 hPa NNE 4.8 km/h 9.7 km/h 83 % 0 mm
22:24 5.4 °C 2.8 °C 1015.5 hPa NNE 4.8 km/h 11.3 km/h 83 % 0 mm
22:29 5.4 °C 2.8 °C 1015.5 hPa NNE 8 km/h 16.1 km/h 83 % 0 mm
22:34 5.4 °C 2.9 °C 1015.5 hPa NNE 4.8 km/h 12.9 km/h 84 % 0 mm
22:39 5.4 °C 2.9 °C 1015.5 hPa NNE 4.8 km/h 9.7 km/h 84 % 0 mm
22:44 5.4 °C 2.9 °C 1015.5 hPa NNE 1.6 km/h 9.7 km/h 84 % 0 mm
22:49 5.3 °C 2.8 °C 1015.5 hPa NNE 3.2 km/h 8 km/h 84 % 0 mm
22:54 5.3 °C 2.8 °C 1015.5 hPa NNE 4.8 km/h 11.3 km/h 84 % 0 mm
22:59 5.3 °C 2.8 °C 1015.1 hPa NNE 8.2 km/h 13 km/h 84 % 0 mm
23:04 5.3 °C 2.6 °C 1015.5 hPa NNE 9.7 km/h 13 km/h 83 % 0 mm
23:09 5.2 °C 2.4 °C 1015.1 hPa NNE 7.4 km/h 14.8 km/h 82 % 0 mm
23:14 5.2 °C 2.2 °C 1015.1 hPa NNE 12.1 km/h 20.4 km/h 81 % 0 mm
23:19 5.2 °C 2.2 °C 1015.5 hPa NNE 12.7 km/h 18.5 km/h 81 % 0 mm
23:24 5.1 °C 2.1 °C 1015.5 hPa NNE 11.7 km/h 20.4 km/h 81 % 0 mm
23:29 5.1 °C 1.9 °C 1015.5 hPa NE 10.3 km/h 19.3 km/h 80 % 0 mm
23:34 5.1 °C 1.9 °C 1015.5 hPa NNE 13.2 km/h 19.3 km/h 80 % 0 mm
23:39 5.1 °C 1.9 °C 1015.5 hPa NNE 7.6 km/h 11.3 km/h 80 % 0 mm
23:44 5.1 °C 1.9 °C 1015.5 hPa North 10 km/h 14.8 km/h 80 % 0 mm
23:49 5.1 °C 1.6 °C 1015.5 hPa NNE 8.4 km/h 11.1 km/h 78 % 0 mm
23:54 5.1 °C 1.6 °C 1015.5 hPa North 3.5 km/h 5.6 km/h 78 % 0 mm
23:59 5 °C 1.5 °C 1015.5 hPa North 1.8 km/h 8 km/h 78 % 0 mm
Crab Meadow Weather
Compliments of Weather Underground - 3 mb

Script developed by  Jim McMurry - jmcmurry@mwt.net Adapted for the template by  Wim van der Kuil - Leuven-Template.eu

Weather Terms: Flash Flood Warning - Flash flooding is occurring, imminent or highly likely. A flash flood is a flood that occurs within 6 hours of excessive rainfall and that poses a threat to life and/or property. Ice jams and dam failures can also cause flash floods. These warnings are issued on a county by county basis by the local Weather Forecast Office in Upton and are generally in effect for up to 6 hours.